When you browse on this site, cookies collect data to enhance your experience and personalize the content and advertising you see.
Visit our Privacy Policy to learn more. By continuing to use the site, you agree to this use of cookies and data.
  • In Romania
  • List of Countries
  • For 7 days
  • Water Temperature
  • Weather Map
  • Weather Widgets
  • user-avatar
    Login

    Hourly Weather Banbridge

    Today, 23 October, Wednesday

    Time Temperature Precipitation Wind Pressure Humidity
    00:00 +7°C° 0 mm 5 mps 753 mmHg 85%
    01:00 +7°C° 0 mm 5 mps 753 mmHg 87%
    02:00 +7°C° 0 mm 5 mps 752 mmHg 88%
    03:00 +6°C° 0 mm 5 mps 751 mmHg 89%
    04:00 +6°C° 0 mm 5 mps 751 mmHg 89%
    05:00 +7°C° 0 mm 5 mps 751 mmHg 89%
    06:00 +7°C° 0 mm 5 mps 751 mmHg 89%
    07:00 +7°C° 0 mm 6 mps 750 mmHg 88%
    08:00 +8°C° 0 mm 6 mps 750 mmHg 86%
    09:00 +8°C° 0 mm 6 mps 749 mmHg 84%
    10:00 +9°C° 0 mm 7 mps 748 mmHg 82%
    11:00 +9°C° 0 mm 7 mps 748 mmHg 80%
    12:00 +10°C° 0 mm 8 mps 747 mmHg 78%
    13:00 +10°C° 0 mm 7 mps 746 mmHg 78%
    14:00 +10°C° 0 mm 7 mps 745 mmHg 79%
    15:00 +10°C° 0 mm 7 mps 744 mmHg 79%
    16:00 +10°C° 0.4 mm 7 mps 744 mmHg 83%
    17:00 +9°C° 0.4 mm 7 mps 743 mmHg 87%
    18:00 +9°C° 0.4 mm 7 mps 743 mmHg 91%
    19:00 +9°C° 0.3 mm 6 mps 743 mmHg 92%
    20:00 +9°C° 0.3 mm 5 mps 743 mmHg 93%
    21:00 +9°C° 0.3 mm 5 mps 743 mmHg 95%
    22:00 +9°C° 0 mm 5 mps 742 mmHg 95%
    23:00 +8°C° 0 mm 4 mps 742 mmHg 95%

    Tomorrow, 24 October, Thursday

    Time Temperature Precipitation Wind Pressure Humidity
    00:00 +8°C° 0 mm 4 mps 742 mmHg 95%
    01:00 +7°C° 0 mm 4 mps 742 mmHg 95%
    02:00 +7°C° 0 mm 4 mps 741 mmHg 95%
    03:00 +7°C° 0 mm 4 mps 741 mmHg 95%
    04:00 +7°C° 0 mm 4 mps 741 mmHg 95%
    05:00 +6°C° 0 mm 4 mps 741 mmHg 94%
    06:00 +6°C° 0 mm 5 mps 741 mmHg 94%
    07:00 +7°C° 0 mm 5 mps 741 mmHg 93%
    08:00 +7°C° 0 mm 5 mps 742 mmHg 91%
    09:00 +7°C° 0 mm 6 mps 742 mmHg 90%
    10:00 +8°C° 0.1 mm 6 mps 742 mmHg 85%
    11:00 +8°C° 0.1 mm 6 mps 743 mmHg 79%
    12:00 +8°C° 0.1 mm 7 mps 743 mmHg 74%
    13:00 +8°C° 0 mm 6 mps 744 mmHg 71%
    14:00 +7°C° 0 mm 6 mps 744 mmHg 68%
    15:00 +7°C° 0 mm 6 mps 744 mmHg 65%
    16:00 +6°C° 0 mm 5 mps 745 mmHg 69%
    17:00 +5°C° 0 mm 5 mps 745 mmHg 73%
    18:00 +2°C° 0 mm 5 mps 745 mmHg 77%
    19:00 +2°C° 0 mm 5 mps 746 mmHg 78%
    20:00 +2°C° 0 mm 5 mps 746 mmHg 79%
    21:00 +1°C° 0 mm 5 mps 747 mmHg 79%
    22:00 +1°C° 0 mm 5 mps 747 mmHg 78%
    23:00 +1°C° 0 mm 5 mps 748 mmHg 77%

    Day after tomorrow, 25 October, Friday

    Time Temperature Precipitation Wind Pressure Humidity
    00:00 +1°C° 0 mm 5 mps 748 mmHg 76%
    01:00 0°C° 0 mm 5 mps 748 mmHg 76%
    02:00 0°C° 0 mm 5 mps 748 mmHg 75%
    03:00 -1°C° 0 mm 4 mps 748 mmHg 75%
    04:00 -1°C° 0 mm 4 mps 748 mmHg 76%
    05:00 -1°C° 0 mm 4 mps 748 mmHg 77%
    06:00 -1°C° 0 mm 4 mps 748 mmHg 79%
    07:00 0°C° 0 mm 4 mps 748 mmHg 76%
    08:00 +1°C° 0 mm 4 mps 748 mmHg 74%
    09:00 +2°C° 0 mm 5 mps 748 mmHg 71%
    10:00 +3°C° 0 mm 4 mps 747 mmHg 70%
    11:00 +4°C° 0 mm 3 mps 747 mmHg 68%
    12:00 +5°C° 0 mm 3 mps 746 mmHg 66%
    13:00 +6°C° 0 mm 2 mps 745 mmHg 68%
    14:00 +5°C° 0 mm 2 mps 744 mmHg 70%
    15:00 +5°C° 0 mm 2 mps 743 mmHg 72%
    16:00 +4°C° 0 mm 2 mps 744 mmHg 78%
    17:00 +2°C° 0 mm 3 mps 744 mmHg 85%
    18:00 +1°C° 0 mm 3 mps 744 mmHg 91%
    19:00 0°C° 0 mm 4 mps 744 mmHg 89%
    20:00 0°C° 0 mm 4 mps 745 mmHg 88%
    21:00 0°C° 0 mm 4 mps 745 mmHg 86%
    22:00 0°C° 0 mm 4 mps 746 mmHg 87%
    23:00 -1°C° 0 mm 4 mps 746 mmHg 89%

    26 October, Saturday

    Time Temperature Precipitation Wind Pressure Humidity
    00:00 -1°C° 0 mm 4 mps 747 mmHg 90%
    01:00 -1°C° 0 mm 4 mps 747 mmHg 90%
    02:00 0°C° 0 mm 3 mps 748 mmHg 91%
    03:00 0°C° 0 mm 3 mps 748 mmHg 91%
    04:00 0°C° 0 mm 3 mps 748 mmHg 91%
    05:00 -1°C° 0 mm 3 mps 748 mmHg 92%
    06:00 -1°C° 0 mm 3 mps 748 mmHg 92%
    07:00 0°C° 0 mm 3 mps 749 mmHg 89%
    08:00 0°C° 0 mm 4 mps 749 mmHg 87%
    09:00 +1°C° 0 mm 4 mps 749 mmHg 84%
    10:00 +2°C° 0 mm 5 mps 750 mmHg 80%
    11:00 +3°C° 0 mm 6 mps 750 mmHg 76%
    12:00 +4°C° 0 mm 7 mps 750 mmHg 73%
    13:00 +4°C° 0.1 mm 7 mps 751 mmHg 71%
    14:00 +4°C° 0.1 mm 7 mps 751 mmHg 70%
    15:00 +4°C° 0.1 mm 7 mps 751 mmHg 68%
    16:00 +4°C° 0 mm 7 mps 752 mmHg 71%
    17:00 +3°C° 0 mm 7 mps 752 mmHg 74%
    18:00 +2°C° 0 mm 6 mps 753 mmHg 77%
    19:00 +2°C° 0 mm 6 mps 753 mmHg 79%
    20:00 +2°C° 0 mm 6 mps 754 mmHg 82%
    21:00 +2°C° 0 mm 5 mps 754 mmHg 85%
    22:00 +2°C° 0 mm 5 mps 755 mmHg 87%
    23:00 +3°C° 0 mm 4 mps 756 mmHg 88%

    27 October, Sunday

    Time Temperature Precipitation Wind Pressure Humidity
    00:00 +3°C° 0 mm 4 mps 756 mmHg 90%
    01:00 +1°C° 0 mm 4 mps 757 mmHg 90%
    02:00 +2°C° 0 mm 3 mps 757 mmHg 91%
    03:00 +2°C° 0 mm 3 mps 758 mmHg 91%
    04:00 +2°C° 0 mm 3 mps 758 mmHg 91%
    05:00 +2°C° 0 mm 3 mps 759 mmHg 91%
    06:00 +2°C° 0 mm 2 mps 759 mmHg 91%
    07:00 +3°C° 0 mm 2 mps 759 mmHg 88%
    08:00 +4°C° 0 mm 2 mps 760 mmHg 86%
    09:00 +4°C° 0 mm 2 mps 760 mmHg 84%
    10:00 +6°C° 0 mm 2 mps 760 mmHg 80%
    11:00 +8°C° 0 mm 1 mps 761 mmHg 77%
    12:00 +9°C° 0 mm 1 mps 761 mmHg 73%
    13:00 +9°C° 0 mm 1 mps 761 mmHg 73%
    14:00 +10°C° 0 mm 1 mps 760 mmHg 74%
    15:00 +10°C° 0 mm 1 mps 760 mmHg 74%
    16:00 +8°C° 0 mm 1 mps 760 mmHg 78%
    17:00 +6°C° 0 mm 0 mps 760 mmHg 82%
    18:00 +5°C° 0 mm 0 mps 760 mmHg 87%
    19:00 +4°C° 0 mm 0 mps 760 mmHg 87%
    20:00 +4°C° 0 mm 0 mps 760 mmHg 87%
    21:00 +5°C° 0 mm 1 mps 761 mmHg 88%
    22:00 +5°C° 0 mm 1 mps 760 mmHg 88%
    23:00 +4°C° 0 mm 1 mps 760 mmHg 89%

    28 October, Monday

    Time Temperature Precipitation Wind Pressure Humidity
    00:00 +4°C° 0 mm 1 mps 760 mmHg 89%
    01:00 +4°C° 0 mm 1 mps 760 mmHg 89%
    02:00 +4°C° 0 mm 1 mps 760 mmHg 89%
    03:00 +3°C° 0 mm 2 mps 760 mmHg 88%
    04:00 +4°C° 0 mm 2 mps 760 mmHg 88%
    05:00 +4°C° 0 mm 2 mps 759 mmHg 89%
    06:00 +4°C° 0 mm 2 mps 759 mmHg 89%
    07:00 +4°C° 0 mm 3 mps 759 mmHg 88%
    08:00 +4°C° 0 mm 4 mps 759 mmHg 87%
    09:00 +5°C° 0 mm 4 mps 759 mmHg 87%
    10:00 +6°C° 0 mm 5 mps 759 mmHg 83%
    11:00 +5°C° 0 mm 6 mps 759 mmHg 79%
    12:00 +7°C° 0 mm 6 mps 759 mmHg 75%
    13:00 +7°C° 0 mm 6 mps 759 mmHg 75%
    14:00 +5°C° 0 mm 6 mps 759 mmHg 75%
    15:00 +5°C° 0 mm 6 mps 759 mmHg 75%
    16:00 +5°C° 0 mm 6 mps 759 mmHg 76%
    17:00 +5°C° 0 mm 6 mps 758 mmHg 76%
    18:00 +5°C° 0 mm 7 mps 758 mmHg 77%
    19:00 +5°C° 0 mm 7 mps 759 mmHg 77%
    20:00 +5°C° 0 mm 7 mps 759 mmHg 76%
    21:00 +5°C° 0 mm 7 mps 759 mmHg 76%
    22:00 +5°C° 0 mm 7 mps 759 mmHg 76%
    23:00 +5°C° 0 mm 8 mps 758 mmHg 76%

    29 October, Tuesday

    Time Temperature Precipitation Wind Pressure Humidity
    00:00 +5°C° 0 mm 8 mps 758 mmHg 76%
    01:00 +5°C° 0 mm 8 mps 758 mmHg 76%
    02:00 +5°C° 0 mm 8 mps 758 mmHg 76%
    03:00 +5°C° 0 mm 8 mps 758 mmHg 77%
    04:00 +5°C° 0 mm 8 mps 758 mmHg 77%
    05:00 +5°C° 0 mm 9 mps 758 mmHg 78%
    06:00 +5°C° 0 mm 9 mps 758 mmHg 78%
    07:00 +5°C° 0.1 mm 9 mps 759 mmHg 79%
    08:00 +5°C° 0.1 mm 9 mps 759 mmHg 79%
    09:00 +5°C° 0.1 mm 10 mps 759 mmHg 80%
    10:00 +5°C° 0.2 mm 9 mps 759 mmHg 81%
    11:00 +5°C° 0.2 mm 9 mps 760 mmHg 82%
    12:00 +5°C° 0.2 mm 9 mps 760 mmHg 83%
    13:00 +5°C° 0.4 mm 9 mps 760 mmHg 85%
    14:00 +5°C° 0.4 mm 9 mps 760 mmHg 86%
    15:00 +5°C° 0.4 mm 8 mps 760 mmHg 88%
    16:00 +6°C° 0.2 mm 8 mps 760 mmHg 88%
    17:00 +6°C° 0.2 mm 8 mps 760 mmHg 89%
    18:00 +6°C° 0.2 mm 8 mps 760 mmHg 89%
    19:00 +6°C° 0.1 mm 8 mps 761 mmHg 89%
    20:00 +6°C° 0.1 mm 8 mps 761 mmHg 89%
    21:00 +7°C° 0.1 mm 8 mps 761 mmHg 89%
    22:00 +7°C° 0 mm 8 mps 761 mmHg 89%
    23:00 +8°C° 0 mm 7 mps 761 mmHg 88%
    Show more